• In Deutschland
  • Länderverzeichnis
  • Für 7 Tage
  • Wassertemperatur
  • Satellitenkarten
  • Wetterkarte
  • Widgets
  • user-avatar
    Anmelden

    Stündliche Wetter Horb am Neckar

    Heute, 27 April, Freitag

    Zeit Temperatur Niederschläge Wind Luftdruck Luftfeuchtigkeit
    00:00 +6°C° 0 mm 1 m/S 720 mmHg 77%
    01:00 +6°C° 0 mm 1 m/S 720 mmHg 77%
    02:00 +6°C° 0 mm 1 m/S 719 mmHg 77%
    03:00 +6°C° 0 mm 1 m/S 719 mmHg 78%
    04:00 +5°C° 0 mm 1 m/S 718 mmHg 78%
    05:00 +6°C° 0 mm 1 m/S 718 mmHg 76%
    06:00 +7°C° 0 mm 1 m/S 717 mmHg 74%
    07:00 +7°C° 0 mm 2 m/S 717 mmHg 72%
    08:00 +9°C° 0 mm 2 m/S 716 mmHg 67%
    09:00 +12°C° 0 mm 3 m/S 716 mmHg 62%
    10:00 +14°C° 0 mm 3 m/S 716 mmHg 57%
    11:00 +17°C° 0 mm 3 m/S 715 mmHg 53%
    12:00 +18°C° 0 mm 3 m/S 715 mmHg 50%
    13:00 +20°C° 0 mm 2 m/S 715 mmHg 47%
    14:00 +20°C° 0 mm 3 m/S 714 mmHg 46%
    15:00 +21°C° 0 mm 3 m/S 714 mmHg 46%
    16:00 +21°C° 0 mm 3 m/S 714 mmHg 45%
    17:00 +20°C° 0 mm 3 m/S 714 mmHg 52%
    18:00 +18°C° 0 mm 2 m/S 714 mmHg 59%
    19:00 +16°C° 0 mm 2 m/S 714 mmHg 66%
    20:00 +15°C° 0 mm 2 m/S 714 mmHg 69%
    21:00 +13°C° 0 mm 2 m/S 715 mmHg 73%
    22:00 +12°C° 0 mm 2 m/S 715 mmHg 76%
    23:00 +10°C° 0 mm 2 m/S 715 mmHg 78%

    Morgen, 28 April, Samstag

    Zeit Temperatur Niederschläge Wind Luftdruck Luftfeuchtigkeit
    00:00 +11°C° 0 mm 1 m/S 716 mmHg 80%
    01:00 +10°C° 0 mm 1 m/S 716 mmHg 82%
    02:00 +10°C° 0 mm 1 m/S 716 mmHg 84%
    03:00 +10°C° 0 mm 1 m/S 716 mmHg 87%
    04:00 +9°C° 0 mm 1 m/S 716 mmHg 90%
    05:00 +10°C° 0 mm 1 m/S 716 mmHg 87%
    06:00 +11°C° 0 mm 1 m/S 717 mmHg 85%
    07:00 +11°C° 0 mm 1 m/S 717 mmHg 82%
    08:00 +13°C° 0 mm 1 m/S 717 mmHg 77%
    09:00 +14°C° 0 mm 1 m/S 717 mmHg 71%
    10:00 +16°C° 0 mm 1 m/S 717 mmHg 66%
    11:00 +18°C° 0 mm 1 m/S 717 mmHg 63%
    12:00 +19°C° 0 mm 1 m/S 716 mmHg 60%
    13:00 +21°C° 0 mm 1 m/S 716 mmHg 57%
    14:00 +21°C° 0 mm 1 m/S 715 mmHg 58%
    15:00 +21°C° 0 mm 1 m/S 715 mmHg 59%
    16:00 +21°C° 0 mm 1 m/S 714 mmHg 60%
    17:00 +19°C° 0,3 mm 1 m/S 714 mmHg 68%
    18:00 +17°C° 0,3 mm 2 m/S 714 mmHg 75%
    19:00 +15°C° 0,3 mm 2 m/S 714 mmHg 83%
    20:00 +15°C° 0,9 mm 1 m/S 714 mmHg 86%
    21:00 +14°C° 0,9 mm 1 m/S 714 mmHg 89%
    22:00 +13°C° 0,9 mm 1 m/S 715 mmHg 92%
    23:00 +12°C° 1 mm 1 m/S 714 mmHg 93%

    übermorgen, 29 April, Sonntag

    Zeit Temperatur Niederschläge Wind Luftdruck Luftfeuchtigkeit
    00:00 +12°C° 1 mm 1 m/S 714 mmHg 94%
    01:00 +12°C° 1 mm 1 m/S 714 mmHg 95%
    02:00 +12°C° 0,1 mm 1 m/S 714 mmHg 95%
    03:00 +11°C° 0,1 mm 1 m/S 713 mmHg 96%
    04:00 +11°C° 0,1 mm 1 m/S 713 mmHg 96%
    05:00 +12°C° 0 mm 1 m/S 713 mmHg 95%
    06:00 +12°C° 0 mm 1 m/S 713 mmHg 94%
    07:00 +13°C° 0 mm 1 m/S 712 mmHg 93%
    08:00 +16°C° 0 mm 1 m/S 712 mmHg 84%
    09:00 +18°C° 0 mm 2 m/S 712 mmHg 74%
    10:00 +20°C° 0 mm 2 m/S 712 mmHg 65%
    11:00 +21°C° 0 mm 2 m/S 711 mmHg 59%
    12:00 +24°C° 0 mm 3 m/S 711 mmHg 54%
    13:00 +25°C° 0 mm 4 m/S 710 mmHg 48%
    14:00 +25°C° 0 mm 3 m/S 709 mmHg 49%
    15:00 +25°C° 0 mm 3 m/S 709 mmHg 51%
    16:00 +25°C° 0 mm 3 m/S 708 mmHg 52%
    17:00 +22°C° 0 mm 3 m/S 707 mmHg 59%
    18:00 +20°C° 0 mm 3 m/S 707 mmHg 66%
    19:00 +19°C° 0 mm 3 m/S 706 mmHg 73%
    20:00 +17°C° 0,2 mm 4 m/S 707 mmHg 76%
    21:00 +14°C° 0,2 mm 6 m/S 708 mmHg 80%
    22:00 +11°C° 0,2 mm 7 m/S 709 mmHg 83%
    23:00 +10°C° 0,2 mm 7 m/S 710 mmHg 84%

    30 April, Montag

    Zeit Temperatur Niederschläge Wind Luftdruck Luftfeuchtigkeit
    00:00 +9°C° 0,2 mm 6 m/S 711 mmHg 85%
    01:00 +8°C° 0,2 mm 6 m/S 712 mmHg 86%
    02:00 +7°C° 0,1 mm 6 m/S 712 mmHg 86%
    03:00 +7°C° 0,1 mm 6 m/S 712 mmHg 85%
    04:00 +5°C° 0,1 mm 6 m/S 713 mmHg 85%
    05:00 +7°C° 0 mm 6 m/S 713 mmHg 82%
    06:00 +7°C° 0 mm 6 m/S 713 mmHg 78%
    07:00 +6°C° 0 mm 7 m/S 713 mmHg 75%
    08:00 +8°C° 0 mm 7 m/S 714 mmHg 69%
    09:00 +9°C° 0 mm 7 m/S 714 mmHg 63%
    10:00 +10°C° 0 mm 7 m/S 715 mmHg 57%
    11:00 +11°C° 0 mm 7 m/S 715 mmHg 54%
    12:00 +13°C° 0 mm 6 m/S 715 mmHg 50%
    13:00 +14°C° 0 mm 6 m/S 715 mmHg 47%
    14:00 +14°C° 0 mm 6 m/S 715 mmHg 47%
    15:00 +15°C° 0 mm 5 m/S 715 mmHg 47%
    16:00 +15°C° 0 mm 5 m/S 714 mmHg 47%
    17:00 +13°C° 0 mm 4 m/S 715 mmHg 54%
    18:00 +12°C° 0 mm 3 m/S 715 mmHg 61%
    19:00 +12°C° 0 mm 1 m/S 715 mmHg 68%
    20:00 +11°C° 0 mm 1 m/S 715 mmHg 71%
    21:00 +10°C° 0 mm 1 m/S 715 mmHg 74%
    22:00 +8°C° 0 mm 0 m/S 715 mmHg 78%
    23:00 +8°C° 0,1 mm 0 m/S 715 mmHg 80%

    1 Mai, Dienstag

    Zeit Temperatur Niederschläge Wind Luftdruck Luftfeuchtigkeit
    00:00 +8°C° 0,1 mm 0 m/S 715 mmHg 83%
    01:00 +8°C° 0,1 mm 0 m/S 715 mmHg 85%
    02:00 +7°C° 0,3 mm 0 m/S 715 mmHg 87%
    03:00 +7°C° 0,3 mm 0 m/S 715 mmHg 88%
    04:00 +8°C° 0,3 mm 1 m/S 715 mmHg 90%
    05:00 +8°C° 0,4 mm 1 m/S 715 mmHg 90%
    06:00 +8°C° 0,4 mm 1 m/S 716 mmHg 91%
    07:00 +8°C° 0,4 mm 1 m/S 716 mmHg 91%
    08:00 +8°C° 0,7 mm 1 m/S 716 mmHg 91%
    09:00 +9°C° 0,7 mm 1 m/S 716 mmHg 90%
    10:00 +9°C° 0,7 mm 1 m/S 716 mmHg 89%
    11:00 +9°C° 0,4 mm 1 m/S 717 mmHg 88%
    12:00 +8°C° 0,4 mm 2 m/S 717 mmHg 87%
    13:00 +8°C° 0,4 mm 2 m/S 717 mmHg 86%
    14:00 +9°C° 0,1 mm 2 m/S 717 mmHg 84%
    15:00 +9°C° 0,1 mm 2 m/S 717 mmHg 82%
    16:00 +10°C° 0,1 mm 2 m/S 717 mmHg 80%
    17:00 +9°C° 0,1 mm 2 m/S 717 mmHg 81%
    18:00 +10°C° 0,1 mm 1 m/S 717 mmHg 83%
    19:00 +10°C° 0,1 mm 1 m/S 718 mmHg 84%
    20:00 +9°C° 0,1 mm 1 m/S 718 mmHg 86%
    21:00 +8°C° 0,1 mm 1 m/S 718 mmHg 87%
    22:00 +8°C° 0,1 mm 1 m/S 719 mmHg 88%
    23:00 +8°C° 0 mm 1 m/S 719 mmHg 89%

    2 Mai, Mittwoch

    Zeit Temperatur Niederschläge Wind Luftdruck Luftfeuchtigkeit
    00:00 +7°C° 0 mm 1 m/S 718 mmHg 89%
    01:00 +7°C° 0 mm 1 m/S 718 mmHg 90%
    02:00 +7°C° 0,1 mm 1 m/S 718 mmHg 90%
    03:00 +7°C° 0,1 mm 1 m/S 718 mmHg 90%
    04:00 +6°C° 0,1 mm 1 m/S 718 mmHg 90%
    05:00 +7°C° 0 mm 1 m/S 718 mmHg 89%
    06:00 +6°C° 0 mm 2 m/S 718 mmHg 87%
    07:00 +7°C° 0 mm 2 m/S 718 mmHg 86%
    08:00 +7°C° 0,1 mm 2 m/S 719 mmHg 85%
    09:00 +8°C° 0,1 mm 2 m/S 719 mmHg 84%
    10:00 +9°C° 0,1 mm 3 m/S 719 mmHg 83%
    11:00 +9°C° 0,1 mm 3 m/S 718 mmHg 84%
    12:00 +9°C° 0,1 mm 3 m/S 718 mmHg 85%
    13:00 +8°C° 0,1 mm 4 m/S 718 mmHg 85%
    14:00 +9°C° 0,2 mm 3 m/S 718 mmHg 87%
    15:00 +9°C° 0,2 mm 3 m/S 718 mmHg 88%
    16:00 +8°C° 0,2 mm 3 m/S 718 mmHg 90%
    17:00 +8°C° 0,2 mm 3 m/S 718 mmHg 91%
    18:00 +8°C° 0,2 mm 3 m/S 718 mmHg 92%
    19:00 +8°C° 0,2 mm 3 m/S 718 mmHg 93%
    20:00 +7°C° 0,1 mm 2 m/S 718 mmHg 94%
    21:00 +7°C° 0,1 mm 2 m/S 719 mmHg 94%
    22:00 +7°C° 0,1 mm 2 m/S 719 mmHg 95%
    23:00 +7°C° 0,1 mm 2 m/S 719 mmHg 95%
    Mehr zeigen